Plymouth, NH

8:02 PM EDT on June 26, 2017 (GMT -0400)
Plymouth

Weather History for K1P1 - November, 2013

Change the Weather History Date:

Monday, November 18, 2013

  Actual Average (KLCI) Record (KLCI)
Temperature  
Mean Temperature 50 °F -  
Max Temperature 59 °F 45 °F 60 °F (2013)
Min Temperature 40 °F 28 °F 21 °F (2007)
Degree Days  
Heating Degree Days 16    
Moisture  
Dew Point 40 °F    
Average Humidity 72    
Maximum Humidity 99    
Minimum Humidity 43    
Precipitation  
Precipitation 0.43 in - - ()
Sea Level Pressure  
Sea Level Pressure 29.57 in    
Wind  
Wind Speed 4 mph (West)    
Max Wind Speed 14 mph    
Max Gust Speed 29 mph    
Visibility 8 miles    
Events Rain    
Averages and records for this station are not official NWS values.
T = Trace of Precipitation, MM = Missing Value Source: NWS Daily Summary

Daily Weather History Graph

Daily Weather History Graph

Search for Another Location

Airport or City:

Trip Planner

Search our weather history database for the weather conditions in past years. The results will help you decide how hot, cold, wet, or windy it might be!

Date:

Astronomy

Nov. 18, 2013 Rise Set
Actual Time 6:45 AM EST 4:18 PM EST
Civil Twilight 6:14 AM EST 4:49 PM EST
Nautical Twilight 5:39 AM EST 5:24 PM EST
Astronomical Twilight 5:05 AM EST 5:58 PM EST
Moon 5:17 PM EST (11/18) 7:31 AM EST (11/18)
Length of Visible Light 10h 35m
Length of Day
9h 32m
Full, 99% of the Moon is Illuminated
Nov 18
Full
Nov 25
Last Quarter
Dec 2
New
Dec 9
First Quarter
Dec 17
Full

Hourly Weather History & Observations

Time (EST) Temp. Windchill Dew Point Humidity Pressure Visibility Wind Dir Wind Speed Gust Speed Precip Events Conditions
12:15 AM 40.5 °F - 40.1 °F 99% 29.85 in 1.2 mi Calm Calm - 0.01 in Rain Rain
12:35 AM 41.0 °F - 40.5 °F 98% 29.82 in 1.0 mi Calm Calm - 0.03 in Rain Light Rain
12:55 AM 41.2 °F - 40.8 °F 99% 29.81 in 0.8 mi Calm Calm - 0.03 in Rain Rain
1:15 AM 41.4 °F 39.4 °F 41.0 °F 99% 29.79 in 2.0 mi East 3.5 mph - 0.01 in Rain Rain
1:35 AM 40.6 °F - 40.3 °F 99% 29.76 in 0.5 mi Calm Calm - 0.02 in Rain Light Rain
1:55 AM 42.3 °F - 41.9 °F 99% 29.75 in 1.8 mi Calm Calm - 0.04 in Rain Rain
2:15 AM 41.9 °F - 41.4 °F 98% 29.73 in 1.2 mi Calm Calm - 0.01 in Rain Rain
2:35 AM 45.0 °F - 44.4 °F 98% 29.71 in 3.0 mi Calm Calm - 0.01 in Rain Light Rain
2:55 AM 42.8 °F - 42.4 °F 99% 29.68 in 1.0 mi Calm Calm - 0.02 in   Light Drizzle
3:15 AM 44.2 °F - 43.7 °F 98% 29.66 in 2.5 mi Calm Calm - N/A   Light Drizzle
3:35 AM 46.4 °F 45.2 °F 45.7 °F 97% 29.64 in 3.0 mi SSE 3.5 mph - N/A   Light Drizzle
3:55 AM 47.1 °F - 46.4 °F 97% 29.62 in 4.0 mi Calm Calm - N/A Rain Light Rain
4:15 AM 45.9 °F - 45.3 °F 98% 29.60 in 3.0 mi Calm Calm - 0.01 in Rain Light Rain
4:35 AM 45.9 °F - 45.5 °F 99% 29.58 in 2.5 mi Calm Calm - 0.01 in   Overcast
4:55 AM 46.6 °F - 45.9 °F 97% 29.55 in 4.0 mi Calm Calm - 0.03 in Rain Heavy Rain
5:15 AM 47.7 °F - 46.9 °F 97% 29.52 in 4.0 mi NNE 4.6 mph - 0.02 in Rain Light Rain
5:35 AM 47.8 °F - 47.3 °F 98% 29.49 in 2.0 mi Calm Calm - 0.08 in Rain Light Rain
5:55 AM 46.8 °F - 46.0 °F 97% 29.48 in 1.0 mi Calm Calm - 0.12 in Rain Rain
6:15 AM 53.2 °F - 52.3 °F 97% 29.47 in 7.0 mi South 10.4 mph 16.1 mph 0.03 in Rain Rain
6:35 AM 55.6 °F - 54.7 °F 97% 29.51 in 3.0 mi SSW 10.4 mph 26.5 mph 0.13 in Rain Rain
6:55 AM 56.7 °F - 53.1 °F 88% 29.51 in 7.0 mi West 5.8 mph - 0.15 in Rain Light Rain
7:15 AM 56.5 °F - 51.1 °F 82% 29.51 in 10.0 mi WNW 4.6 mph - N/A   Drizzle
7:35 AM 55.6 °F - 49.8 °F 81% 29.50 in 10.0 mi Calm Calm - 0.02 in Rain Light Rain
7:55 AM 52.9 °F - 49.1 °F 87% 29.46 in 10.0 mi Calm Calm - 0.03 in Rain Light Rain
8:15 AM 51.6 °F - 49.3 °F 92% 29.49 in 10.0 mi South 4.6 mph - 0.01 in Rain Light Rain
8:35 AM 52.7 °F - 47.5 °F 82% 29.49 in 10.0 mi Calm Calm - 0.01 in   Scattered Clouds
8:55 AM 52.0 °F - 47.7 °F 85% 29.49 in 10.0 mi Calm Calm - 0.01 in   Mostly Cloudy
9:15 AM 53.4 °F - 46.9 °F 79% 29.49 in 10.0 mi SE 3.5 mph - N/A   Overcast
9:35 AM 55.0 °F - 45.7 °F 71% 29.50 in 10.0 mi Calm Calm - N/A   Overcast
9:55 AM 54.9 °F - 45.5 °F 71% 29.51 in 10.0 mi WSW 8.1 mph - N/A   Overcast
10:15 AM 54.9 °F - 45.1 °F 70% 29.51 in 10.0 mi SW 8.1 mph - N/A   Overcast
10:35 AM 56.3 °F - 44.6 °F 65% 29.51 in 10.0 mi WSW 5.8 mph - N/A   Mostly Cloudy
10:55 AM 56.5 °F - 43.5 °F 62% 29.51 in 10.0 mi WSW 4.6 mph - N/A   Mostly Cloudy
11:15 AM 55.4 °F - 43.0 °F 63% 29.50 in 10.0 mi WSW 4.6 mph - N/A   Overcast
11:35 AM 56.3 °F - 43.7 °F 63% 29.49 in 10.0 mi West 3.5 mph - N/A   Overcast
11:55 AM 57.7 °F - 43.3 °F 59% 29.49 in 10.0 mi WNW 6.9 mph - N/A   Overcast
12:15 PM 57.6 °F - 41.5 °F 55% 29.49 in 10.0 mi WNW 9.2 mph 21.9 mph N/A   Overcast
12:35 PM 58.1 °F - 38.1 °F 47% 29.49 in 10.0 mi WNW 10.4 mph 19.6 mph N/A   Mostly Cloudy
12:55 PM 58.1 °F - 37.2 °F 46% 29.50 in 10.0 mi West 10.4 mph 18.4 mph N/A   Mostly Cloudy
1:15 PM 58.1 °F - 37.6 °F 46% 29.49 in 10.0 mi WNW 8.1 mph 16.1 mph N/A   Scattered Clouds
1:35 PM 59.2 °F - 36.7 °F 43% 29.49 in 10.0 mi West 8.1 mph - N/A   Scattered Clouds
1:55 PM 59.0 °F - 38.1 °F 46% 29.50 in 10.0 mi West 9.2 mph - N/A   Scattered Clouds
2:15 PM 58.3 °F - 37.8 °F 46% 29.50 in 10.0 mi WNW 6.9 mph - N/A   Clear
2:35 PM 58.3 °F - 37.6 °F 46% 29.51 in 10.0 mi West 8.1 mph - N/A   Scattered Clouds
2:55 PM 57.4 °F - 36.7 °F 46% 29.52 in 10.0 mi West 11.5 mph 16.1 mph N/A   Scattered Clouds
3:15 PM 57.4 °F - 36.9 °F 46% 29.52 in 10.0 mi West 5.8 mph - N/A   Scattered Clouds
3:35 PM 56.7 °F - 36.3 °F 47% 29.53 in 10.0 mi West 8.1 mph - N/A   Scattered Clouds
3:55 PM 55.0 °F - 36.0 °F 49% 29.54 in 10.0 mi West 6.9 mph - N/A   Scattered Clouds
4:15 PM 54.5 °F - 35.4 °F 49% 29.55 in 10.0 mi West 10.4 mph - N/A   Clear
4:35 PM 53.2 °F - 34.7 °F 49% 29.56 in 10.0 mi West 9.2 mph - N/A   Scattered Clouds
4:55 PM 52.9 °F - 33.6 °F 48% 29.56 in 10.0 mi WSW 5.8 mph - N/A   Scattered Clouds
5:15 PM 50.7 °F - 34.0 °F 53% 29.57 in 10.0 mi Calm Calm - N/A   Clear
5:35 PM 46.2 °F - 35.2 °F 66% 29.57 in 10.0 mi Calm Calm - N/A   Clear
5:55 PM 43.0 °F - 36.5 °F 78% 29.57 in 10.0 mi Calm Calm - N/A   Clear
6:15 PM 41.5 °F 39.6 °F 37.4 °F 85% 29.57 in 10.0 mi West 3.5 mph - N/A   Scattered Clouds
6:35 PM 46.0 °F 41.9 °F 37.4 °F 72% 29.59 in 10.0 mi WSW 8.1 mph 21.9 mph N/A Rain Rain
6:55 PM 46.0 °F 43.1 °F 37.9 °F 73% 29.59 in 10.0 mi West 5.8 mph - N/A   Mostly Cloudy
7:15 PM 45.5 °F 42.5 °F 37.9 °F 75% 29.59 in 10.0 mi WNW 5.8 mph - N/A   Scattered Clouds
7:35 PM 47.5 °F - 36.7 °F 66% 29.59 in 10.0 mi West 9.2 mph 17.3 mph N/A   Overcast
7:55 PM 48.4 °F - 36.0 °F 62% 29.59 in 10.0 mi West 6.9 mph 16.1 mph N/A   Overcast
8:15 PM 48.0 °F - 35.4 °F 62% 29.58 in 10.0 mi West 12.7 mph 16.1 mph N/A   Scattered Clouds
8:35 PM 47.1 °F - 35.1 °F 63% 29.58 in 10.0 mi West 8.1 mph - N/A   Clear
8:55 PM 45.3 °F 41.6 °F 35.6 °F 69% 29.59 in 10.0 mi West 6.9 mph - N/A   Clear
9:15 PM 46.9 °F - 33.1 °F 59% 29.59 in 10.0 mi West 6.9 mph - N/A   Clear
9:35 PM 45.3 °F 41.1 °F 32.7 °F 61% 29.60 in 10.0 mi WSW 8.1 mph - N/A   Clear
9:55 PM 45.9 °F 41.7 °F 32.0 °F 58% 29.60 in 10.0 mi WSW 8.1 mph - N/A   Clear
10:15 PM 45.9 °F 40.8 °F 31.6 °F 58% 29.60 in 10.0 mi West 10.4 mph 17.3 mph N/A   Clear
10:35 PM 46.4 °F 42.9 °F 29.7 °F 52% 29.60 in 10.0 mi WNW 6.9 mph 18.4 mph N/A   Scattered Clouds
10:55 PM 45.1 °F 40.3 °F 30.7 °F 57% 29.61 in 10.0 mi West 9.2 mph 16.1 mph N/A   Overcast
11:15 PM 45.0 °F 39.7 °F 30.9 °F 58% 29.61 in 10.0 mi West 10.4 mph 18.4 mph N/A   Mostly Cloudy
11:35 PM 45.3 °F 39.0 °F 29.1 °F 53% 29.61 in 10.0 mi West 13.8 mph 20.7 mph N/A   Clear
11:55 PM 45.1 °F 38.8 °F 28.2 °F 52% 29.61 in 10.0 mi West 13.8 mph 28.8 mph N/A   Scattered Clouds